Location: Excel
(51.3833°N, 110.5667°W)
Time: 03:04:27
(UTC+00:00)

X-37B - Visible Passes

Search period start: 02 October 2022 00:00
Search period end: 12 October 2022 00:00
Orbit: 329 x 342 km, 45.0° (Epoch: 29 September)

Date Brightness Start Highest point End Pass type
(mag) Time Alt. Az. Time Alt. Az. Time Alt. Az.
02 Oct 2.5 11:26:13 18° SSE 11:26:13 18° SSE 11:27:34 10° SE visible
03 Oct 2.4 11:45:56 17° S 11:45:56 17° S 11:47:29 10° SSE visible
04 Oct 2.8 12:05:44 12° SSW 12:05:44 12° SSW 12:06:43 10° S visible
